Location: Ottawa
(45.4170°N, 75.7000°W)
Time: 08:18:12
(UTC-05:00)

Amateur Radio Satellites - All Passes

Search period start: 21 January 2017 07:48
Search period end: 22 January 2017 07:48
Location: Ottawa, 45.4170°N, 75.7000°W

Satellite Date Start Highest point End Downlink Frequencies (MHz)
Time Altitude Azimuth
CUTE-I 21 Jan 07:48:18 07:52:38 26° 298° (WNW) 07:56:57 437.470
ZACube-1 21 Jan 07:53:31 07:56:11 16° 91° (E) 07:58:52 437.345
CANX-2 21 Jan 07:55:37 07:59:57 76° 284° (WNW) 08:04:14 2200.000
CINEMA 3 21 Jan 07:56:02 08:00:06 50° 288° (WNW) 08:04:14 145.822/145.860
UNISAT 6 21 Jan 07:57:21 07:59:21 13° 60° (ENE) 08:01:21 437.425
GONETS M04 21 Jan 08:00:22 08:08:34 45° 273° (W) 08:16:46
SEEDS 21 Jan 08:05:00 08:09:18 80° 103° (ESE) 08:13:32 437.485
COMPASS 1 21 Jan 08:08:53 08:13:04 58° 100° (E) 08:17:12 437.405
TIGRISAT 21 Jan 08:09:43 08:12:20 16° 62° (ENE) 08:14:58 435.000
Cosmos 2499 21 Jan 08:17:25 08:22:44 23° 279° (W) 08:27:58 435.465 / 435.565
AAUSAT CUBESAT 2 21 Jan 08:19:21 08:23:30 58° 100° (E) 08:27:36 437.432
ANTELSAT 21 Jan 08:24:16 08:27:38 23° 65° (ENE) 08:31:02 437.575/2403.000
O/OREOS (USA 219) 21 Jan 08:25:53 08:26:08 10° 317° (NW) 08:26:23 437.305
Oscar 11 21 Jan 08:27:36 08:31:24 28° 95° (E) 08:35:11 145.826/435.025
Cubesat XI-IV 21 Jan 08:33:29 08:35:35 12° 306° (NW) 08:37:41 437.490
NOAA 15 21 Jan 08:40:37 08:41:29 10° 308° (NW) 08:42:21 137.62
NOAA 18 21 Jan 08:43:12 08:46:49 18° 303° (WNW) 08:50:26 137.9125
CUBEBUG 2 21 Jan 08:45:03 08:49:20 63° 286° (WNW) 08:53:43 437.445
PRISM 21 Jan 08:51:56 08:56:01 54° 259° (W) 09:00:07 437.425
PCSat 21 Jan 08:53:27 08:58:46 51° 52° (NE) 09:04:02 145.827
CUTE 1.7 + AOD 2 21 Jan 09:02:52 09:05:58 20° 296° (WNW) 09:09:03 437.475
FUNcube-1 21 Jan 09:04:46 09:09:09 77° 102° (ESE) 09:13:37 145.935
UWE-3 21 Jan 09:11:44 09:15:58 52° 288° (WNW) 09:20:18 435.000/436.395/437.385
RS-15 21 Jan 09:14:20 09:26:16 59° 246° (WSW) 09:37:44 29.354- 29.394
SO-50 21 Jan 09:14:31 09:18:33 27° 319° (NW) 09:22:32 436.795
HO-68 21 Jan 09:19:13 09:25:35 36° 300° (WNW) 09:31:55 435.675
POLYITAN 1 21 Jan 09:20:43 09:21:02 10° 58° (ENE) 09:21:21 437.675
QB50P2 21 Jan 09:21:02 09:22:15 11° 59° (ENE) 09:23:29 145.880/145.840
ZACube-1 21 Jan 09:28:29 09:32:47 56° 287° (WNW) 09:37:09 437.345
DELFI C3 21 Jan 09:28:59 09:32:50 43° 99° (E) 09:36:37 145.870
UNISAT 6 21 Jan 09:31:16 09:35:30 70° 258° (WSW) 09:39:47 437.425
HUMSAT D 21 Jan 09:32:01 09:35:41 27° 95° (E) 09:39:22 437.325/437.525
JAS-2 21 Jan 09:39:23 09:44:33 48° 68° (ENE) 09:50:18 435.910
POPSAT HIP 1 21 Jan 09:40:47 09:43:21 16° 62° (ENE) 09:45:56 437.405
SEEDS 21 Jan 09:42:45 09:44:21 12° 300° (WNW) 09:45:57 437.485
TIGRISAT 21 Jan 09:44:27 09:48:37 54° 260° (W) 09:52:48 435.000
COMPASS 1 21 Jan 09:45:42 09:48:09 15° 298° (WNW) 09:50:36 437.405
DUCHIFAT 1 21 Jan 09:50:15 09:53:00 17° 63° (ENE) 09:55:45 145.980
NANOSAT C BR1 21 Jan 09:55:47 09:58:56 21° 65° (ENE) 10:02:07 145.865
AAUSAT CUBESAT 2 21 Jan 09:56:06 09:58:30 15° 298° (WNW) 10:00:54 437.432
ANTELSAT 21 Jan 10:00:17 10:04:11 35° 263° (W) 10:08:07 437.575/2403.000
Oscar 11 21 Jan 10:03:42 10:07:31 30° 292° (WNW) 10:11:17 145.826/435.025
BUGSAT 1 21 Jan 10:21:53 10:23:57 14° 61° (ENE) 10:26:01 437.445
PCSat 21 Jan 10:37:22 10:41:53 27° 251° (WSW) 10:46:23 145.827
ESTCUBE 1 21 Jan 10:39:16 10:42:39 20° 92° (E) 10:45:59 437.505/2401.250
FUNcube-1 21 Jan 10:42:50 10:44:50 13° 299° (WNW) 10:46:50 145.935
QB50P1 21 Jan 10:47:28 10:51:38 79° 76° (ENE) 10:55:51 145.935-145.965
POLYITAN 1 21 Jan 10:51:56 10:56:07 88° 83° (E) 11:00:20 437.675
QB50P2 21 Jan 10:53:13 10:57:24 84° 254° (WSW) 11:01:38 145.880/145.840
DELFI C3 21 Jan 11:04:36 11:07:19 18° 296° (WNW) 11:09:59 145.870
HUMSAT D 21 Jan 11:07:31 11:11:17 30° 292° (WNW) 11:15:02 437.325/437.525
SPROUT 21 Jan 11:10:05 11:11:05 11° 88° (E) 11:12:04 437.525
POPSAT HIP 1 21 Jan 11:14:37 11:18:43 54° 260° (W) 11:22:51 437.405
50 SAT 21 Jan 11:16:15 11:16:35 10° 89° (E) 11:16:56 437.505
BY70-1 21 Jan 11:18:19 11:21:39 70° 284° (WNW) 11:24:45 436.1900
DUCHIFAT 1 21 Jan 11:24:17 11:28:19 48° 261° (W) 11:32:23 145.980
JAS-2 21 Jan 11:25:37 11:30:02 25° 269° (W) 11:34:48 435.910
CUSAT 1 21 Jan 11:29:46 11:32:27 12° 49° (NE) 11:35:06 437.405
CUBEBUG 1 21 Jan 11:29:57 11:34:01 38° 98° (E) 11:38:02 437.445
NANOSAT C BR1 21 Jan 11:30:32 11:34:26 38° 262° (W) 11:38:22 145.865
RS-15 21 Jan 11:31:22 11:35:45 13° 269° (W) 11:40:06 29.354- 29.394
AISAT 21 Jan 11:48:55 11:53:03 39° 98° (E) 11:57:09 437.250
BUGSAT 1 21 Jan 11:54:51 11:58:51 60° 258° (WSW) 12:02:51 437.445
Oscar 19 21 Jan 12:09:08 12:14:10 52° 70° (ENE) 12:19:14 437.125/150
AO-7 21 Jan 12:10:28 12:15:13 17° 41° (NE) 12:19:58 29.400- 29.500
Cosmos 2491 21 Jan 12:15:01 12:23:23 45° 72° (ENE) 12:31:43 435.465 / 435.565
ESTCUBE 1 21 Jan 12:15:20 12:19:40 45° 290° (WNW) 12:23:57 437.505/2401.250
VELOX 1 21 Jan 12:22:05 12:26:31 83° 106° (ESE) 12:30:53 145.980
YUBILEINY 21 Jan 12:26:41 12:32:26 20° 76° (ENE) 12:38:11 435.215
QB50P1 21 Jan 12:27:52 12:27:58 10° 272° (W) 12:28:04 145.935-145.965
DANDE 21 Jan 12:28:46 12:31:35 12° 53° (NE) 12:34:30 436.750
Gurwin Techsat 1B 21 Jan 12:31:22 12:36:25 46° 68° (ENE) 12:41:28 435.225
TISAT 1 21 Jan 12:33:44 12:35:33 12° 90° (E) 12:37:22 437.305
SPROUT 21 Jan 12:43:16 12:47:31 76° 285° (WNW) 12:51:46 437.525
50 SAT 21 Jan 12:46:39 12:50:10 56° 286° (WNW) 12:53:38 437.505
UKube-1 21 Jan 12:47:54 12:52:09 55° 100° (E) 12:56:22 .
DX 1 21 Jan 12:50:49 12:55:11 81° 104° (ESE) 12:59:30 434.975-435.025
ITAMSAT 1 21 Jan 12:56:11 12:59:39 18° 59° (ENE) 13:03:07 435.822/435.867
Cosmos 2504 21 Jan 13:02:55 13:07:54 17° 77° (ENE) 13:12:44 435.465 / 435.565
CUBEBUG 1 21 Jan 13:06:41 13:10:05 23° 295° (WNW) 13:13:26 437.445
AIST 1 21 Jan 13:08:32 13:12:20 30° 90° (E) 13:16:07
CUSAT 1 21 Jan 13:08:50 13:16:30 47° 70° (ENE) 13:23:42 437.405
AO-85 21 Jan 13:16:41 13:21:03 38° 118° (ESE) 13:25:07 145.980
AISAT 21 Jan 13:25:51 13:29:17 23° 296° (WNW) 13:32:43 437.250
BEESAT 21 Jan 13:42:50 13:45:40 15° 90° (E) 13:48:30 436.000
SWISSCUBE 21 Jan 13:44:15 13:47:31 18° 91° (E) 13:50:45 437.505
Oscar 19 21 Jan 13:49:49 13:53:47 22° 268° (W) 13:57:47 437.125/150
AO-7 21 Jan 13:58:09 14:06:18 59° 64° (ENE) 14:14:29 29.400- 29.500
VELOX 1 21 Jan 14:00:33 14:02:18 12° 302° (WNW) 14:04:03 145.980
TISAT 1 21 Jan 14:07:27 14:11:36 63° 286° (WNW) 14:15:43 437.305
DANDE 21 Jan 14:08:32 14:16:01 50° 72° (ENE) 14:24:05 436.750
Cosmos 2491 21 Jan 14:12:03 14:20:12 45° 273° (W) 14:28:22 435.465 / 435.565
Gurwin Techsat 1B 21 Jan 14:12:11 14:16:33 26° 266° (W) 14:20:57 435.225
YUBILEINY 21 Jan 14:19:05 14:27:55 88° 95° (E) 14:36:49 435.215
SO-50 21 Jan 14:22:59 14:25:57 17° 33° (NNE) 14:28:51 436.795
UKube-1 21 Jan 14:25:01 14:27:47 17° 298° (WNW) 14:30:32 .
DX 1 21 Jan 14:28:58 14:30:44 12° 301° (WNW) 14:32:30 434.975-435.025
ITAMSAT 1 21 Jan 14:33:26 14:38:34 69° 257° (WSW) 14:43:46 435.822/435.867
ITUPSAT 1 21 Jan 14:45:12 14:49:59 59° 101° (ESE) 14:54:43 437.325
AIST 1 21 Jan 14:46:13 14:49:54 26° 288° (WNW) 14:53:36
CUSAT 1 21 Jan 14:50:59 14:58:23 43° 271° (W) 15:05:17 437.405
Cosmos 2504 21 Jan 14:51:26 15:00:06 81° 96° (E) 15:08:12 435.465 / 435.565
AO-85 21 Jan 14:57:28 15:01:32 30° 315° (NW) 15:05:21 145.980
MOZHAYETS 4 21 Jan 15:04:46 15:08:55 32° 96° (E) 15:13:04
O/OREOS (USA 219) 21 Jan 15:09:58 15:14:14 40° 59° (ENE) 15:18:30 437.305
BEESAT 21 Jan 15:19:08 15:23:54 65° 288° (WNW) 15:28:38 436.000
SWISSCUBE 21 Jan 15:20:57 15:25:39 56° 289° (WNW) 15:30:21 437.505
BEESAT 3 21 Jan 15:29:41 15:32:59 27° 115° (ESE) 15:36:20 437.485
BRITE-PL 21 Jan 15:30:37 15:35:58 43° 69° (ENE) 15:41:13 437.365/2234.400
GOMX 1 21 Jan 15:30:38 15:34:19 20° 63° (ENE) 15:37:53 467.674
KKS-1 21 Jan 15:36:39 15:40:01 21° 93° (E) 15:43:21 437.445
HORYU 2 21 Jan 15:46:24 15:50:02 26° 65° (ENE) 15:53:40 437.375
DANDE 21 Jan 15:51:27 15:58:42 43° 269° (W) 16:06:24 436.750
AO-7 21 Jan 15:51:58 15:59:25 35° 264° (W) 16:06:58 29.400- 29.500
CUBESAT XI-V 21 Jan 15:54:22 15:57:28 17° 90° (E) 16:00:32 437.345
CUTE-I 21 Jan 15:54:35 15:57:40 16° 57° (ENE) 16:00:45 437.470
M-CUBED/EXP-1 PRIME 21 Jan 15:57:49 16:00:41 26° 102° (ESE) 16:03:28 437.505
SO-50 21 Jan 16:02:36 16:07:09 81° 55° (NE) 16:11:36 436.795
DOVE 4 21 Jan 16:04:39 16:07:26 15° 62° (ENE) 16:10:09 437.250
BEESAT 2 21 Jan 16:16:38 16:20:17 36° 118° (ESE) 16:23:58 435.950
YUBILEINY 21 Jan 16:19:18 16:25:59 23° 300° (WNW) 16:32:42 435.215
HO-68 21 Jan 16:20:21 16:22:31 12° 43° (NE) 16:24:40 435.675
ITUPSAT 1 21 Jan 16:24:03 16:27:22 19° 299° (WNW) 16:30:41 437.325
STARS 21 Jan 16:26:08 16:30:01 31° 97° (E) 16:33:54 437.465
AUBIESAT-1 21 Jan 16:33:06 16:36:26 59° 107° (ESE) 16:39:41 437.475
Cubesat XI-IV 21 Jan 16:36:08 16:40:50 33° 65° (ENE) 16:45:33 437.490
NOAA 15 21 Jan 16:40:33 16:45:24 38° 66° (ENE) 16:50:17 137.62
MOZHAYETS 4 21 Jan 16:41:59 16:46:02 30° 293° (WNW) 16:50:04
Cosmos 2504 21 Jan 16:47:44 16:54:20 24° 296° (WNW) 17:00:42 435.465 / 435.565
O/OREOS (USA 219) 21 Jan 16:49:52 16:53:23 23° 257° (WSW) 16:56:55 437.305
NOAA 18 21 Jan 16:50:33 16:55:08 28° 62° (ENE) 16:59:42 137.9125
GOMX 1 21 Jan 17:06:36 17:11:57 66° 259° (W) 17:17:03 467.674
BEESAT 3 21 Jan 17:06:56 17:10:30 33° 314° (NW) 17:14:07 437.485
BRITE-PL 21 Jan 17:09:30 17:14:30 31° 266° (W) 17:19:26 437.365/2234.400
KKS-1 21 Jan 17:12:35 17:16:45 42° 290° (WNW) 17:20:54 437.445
CANX-2 21 Jan 17:17:39 17:19:03 11° 59° (ENE) 17:20:28 2200.000
HORYU 2 21 Jan 17:22:26 17:26:27 34° 263° (W) 17:30:29 437.375
CINEMA 3 21 Jan 17:23:51 17:26:59 20° 65° (ENE) 17:30:03 145.822/145.860
LilacSat-2 21 Jan 17:28:33 17:32:19 78° 258° (WSW) 17:36:08 437.200
CUBESAT XI-V 21 Jan 17:30:35 17:35:12 56° 288° (WNW) 17:39:45 437.345
CUTE-I 21 Jan 17:31:42 17:37:01 85° 255° (WSW) 17:42:22 437.470
M-CUBED/EXP-1 PRIME 21 Jan 17:32:34 17:35:05 20° 300° (WNW) 17:37:31 437.505
DOVE 4 21 Jan 17:39:41 17:44:39 73° 258° (WSW) 17:49:20 437.250
SO-50 21 Jan 17:44:57 17:46:56 13° 252° (WSW) 17:48:55 436.795
BEESAT 2 21 Jan 17:54:44 17:58:08 27° 317° (NW) 18:01:36 435.950
HO-68 21 Jan 18:01:43 18:08:34 49° 64° (ENE) 18:15:25 435.675
STARS 21 Jan 18:02:34 18:06:18 28° 294° (WNW) 18:10:00 437.465
AUBIESAT-1 21 Jan 18:09:43 18:10:23 10° 305° (NW) 18:11:04 437.475
STRAND 1 21 Jan 18:10:06 18:12:41 14° 89° (E) 18:15:15 437.568
CUBEBUG 2 21 Jan 18:10:49 18:13:08 15° 62° (ENE) 18:15:26 437.445
Cubesat XI-IV 21 Jan 18:15:58 18:20:51 36° 263° (W) 18:25:45 437.490
NOAA 15 21 Jan 18:20:32 18:25:13 31° 264° (W) 18:29:56 137.62
CUTE 1.7 + AOD 2 21 Jan 18:20:46 18:24:45 41° 71° (ENE) 18:28:47 437.475
AIST 2 21 Jan 18:26:36 18:29:32 19° 112° (ESE) 18:32:31 435.215
NOAA 18 21 Jan 18:30:15 18:35:33 48° 260° (W) 18:40:51 137.9125
UWE-3 21 Jan 18:36:00 18:38:42 17° 63° (ENE) 18:41:25 435.000/436.395/437.385
CANX-2 21 Jan 18:49:59 18:54:15 84° 260° (W) 18:58:33 2200.000
ZACube-1 21 Jan 18:51:59 18:54:27 16° 62° (ENE) 18:56:56 437.345
SEEDS 21 Jan 18:58:17 19:02:29 70° 74° (ENE) 19:06:44 437.485
CINEMA 3 21 Jan 18:59:41 19:03:53 43° 261° (W) 19:07:57 145.822/145.860
COMPASS 1 21 Jan 19:01:15 19:05:18 50° 72° (ENE) 19:09:24 437.405
Cosmos 2499 21 Jan 19:01:17 19:09:18 53° 91° (E) 19:16:47 435.465 / 435.565
GONETS M04 21 Jan 19:07:09 19:15:19 48° 88° (E) 19:23:34
AAUSAT CUBESAT 2 21 Jan 19:11:10 19:15:12 49° 72° (ENE) 19:19:16 437.432
CUTE-I 21 Jan 19:16:07 19:17:51 11° 273° (W) 19:19:35 437.470
Oscar 11 21 Jan 19:24:23 19:28:06 29° 67° (ENE) 19:31:51 145.826/435.025
CUBEBUG 2 21 Jan 19:45:13 19:49:19 57° 259° (W) 19:53:25 437.445
STRAND 1 21 Jan 19:47:18 19:52:28 81° 286° (WNW) 19:57:37 437.568
HO-68 21 Jan 19:49:53 19:56:25 37° 263° (W) 20:03:02 435.675
CUTE 1.7 + AOD 2 21 Jan 19:57:39 20:00:46 20° 268° (W) 20:03:55 437.475
FUNcube-1 21 Jan 20:02:13 20:06:19 75° 75° (ENE) 20:10:30 145.935
AIST 2 21 Jan 20:03:39 20:07:39 49° 310° (NW) 20:11:46 435.215
AO-85 21 Jan 20:07:22 20:08:31 11° 29° (NNE) 20:09:40 145.980
UWE-3 21 Jan 20:10:49 20:14:48 47° 261° (W) 20:18:51 435.000/436.395/437.385
DELFI C3 21 Jan 20:16:26 20:20:04 33° 70° (ENE) 20:23:42 145.870
HUMSAT D 21 Jan 20:25:25 20:28:46 25° 66° (ENE) 20:32:10 437.325/437.525
ZACube-1 21 Jan 20:26:16 20:30:19 54° 261° (W) 20:34:26 437.345
PRISM 21 Jan 20:32:03 20:34:47 17° 92° (E) 20:37:28 437.425
SEEDS 21 Jan 20:37:12 20:38:40 12° 272° (W) 20:40:08 437.485
COMPASS 1 21 Jan 20:38:33 20:41:08 16° 270° (W) 20:43:45 437.405
AAUSAT CUBESAT 2 21 Jan 20:48:21 20:50:57 16° 269° (W) 20:53:34 437.432
ISS 21 Jan 20:53:53 20:55:34 13° 133° (SE) 20:57:16 145.825
Cosmos 2499 21 Jan 20:55:13 21:02:40 36° 290° (WNW) 21:09:42 435.465 / 435.565
Oscar 11 21 Jan 21:00:25 21:04:10 29° 265° (W) 21:07:59 145.826/435.025
GONETS M04 21 Jan 21:04:06 21:12:14 43° 290° (WNW) 21:20:30
UNISAT 6 21 Jan 21:21:01 21:24:22 21° 93° (E) 21:27:45 437.425
STRAND 1 21 Jan 21:28:38 21:30:50 13° 304° (NW) 21:33:01 437.568
RS-15 21 Jan 21:31:29 21:39:30 22° 97° (E) 21:47:41 29.354- 29.394
TIGRISAT 21 Jan 21:33:38 21:37:20 25° 95° (E) 21:41:06 435.000
BY70-1 21 Jan 21:34:35 21:37:18 28° 69° (ENE) 21:40:11 436.1900
ESTCUBE 1 21 Jan 21:40:43 21:44:24 25° 65° (ENE) 21:48:07 437.505/2401.250
FUNcube-1 21 Jan 21:42:51 21:43:07 10° 273° (W) 21:43:24 145.935
AIST 2 21 Jan 21:45:51 21:47:08 11° 332° (NNW) 21:48:26 435.215
AO-85 21 Jan 21:45:55 21:49:50 57° 51° (NE) 21:53:40 145.980
VELOX 1 21 Jan 21:47:59 21:49:40 12° 58° (ENE) 21:51:21 145.980
ANTELSAT 21 Jan 21:48:56 21:53:06 38° 98° (E) 21:57:20 437.575/2403.000
DELFI C3 21 Jan 21:51:49 21:54:56 21° 267° (W) 21:58:05 145.870
HUMSAT D 21 Jan 22:00:35 22:04:15 31° 264° (W) 22:08:00 437.325/437.525
SPROUT 21 Jan 22:05:33 22:07:17 12° 60° (ENE) 22:08:59 437.525
PRISM 21 Jan 22:06:21 22:10:18 44° 289° (WNW) 22:14:11 437.425
DX 1 21 Jan 22:15:32 22:16:53 11° 58° (ENE) 22:18:14 434.975-435.025
CUBEBUG 1 21 Jan 22:27:37 22:31:47 42° 70° (ENE) 22:35:56 437.445
ISS 21 Jan 22:28:21 22:31:36 87° 162° (SSE) 22:34:53 145.825
JAS-2 21 Jan 22:29:12 22:36:02 43° 97° (E) 22:43:19 435.910
QB50P1 21 Jan 22:32:25 22:33:24 11° 88° (E) 22:34:24 145.935-145.965
YUBILEINY 21 Jan 22:33:33 22:35:48 11° 47° (NE) 22:38:04 435.215
POLYITAN 1 21 Jan 22:36:23 22:38:08 12° 89° (E) 22:39:52 437.675
QB50P2 21 Jan 22:37:22 22:39:29 13° 90° (E) 22:41:36 145.880/145.840
AISAT 21 Jan 22:47:57 22:52:12 46° 70° (ENE) 22:56:26 437.250
BEESAT 2 21 Jan 22:56:41 22:57:14 10° 28° (NNE) 22:57:48 435.950
UNISAT 6 21 Jan 22:57:02 23:01:15 43° 289° (WNW) 23:05:31 437.425
POPSAT HIP 1 21 Jan 22:57:38 23:00:48 20° 93° (E) 23:03:56 437.405
BY70-1 21 Jan 23:05:40 23:07:40 16° 268° (W) 23:09:45 436.1900
DUCHIFAT 1 21 Jan 23:06:26 23:09:41 21° 94° (E) 23:12:56 145.980
TIGRISAT 21 Jan 23:10:03 23:14:04 35° 291° (WNW) 23:18:09 435.000
NANOSAT C BR1 21 Jan 23:12:32 23:16:09 27° 95° (E) 23:19:45 145.865
ESTCUBE 1 21 Jan 23:16:48 23:21:01 38° 262° (W) 23:25:16 437.505/2401.250
VELOX 1 21 Jan 23:21:00 23:25:27 86° 255° (WSW) 23:29:56 145.980
50 SAT 21 Jan 23:22:48 23:26:22 77° 75° (ENE) 23:29:58 437.505
ANTELSAT 21 Jan 23:26:03 23:29:37 24° 294° (WNW) 23:33:14 437.575/2403.000
TISAT 1 21 Jan 23:27:35 23:29:43 14° 61° (ENE) 23:31:50 437.305
AO-85 21 Jan 23:27:38 23:29:45 14° 249° (WSW) 23:31:51 145.980
BUGSAT 1 21 Jan 23:35:19 23:37:47 16° 92° (E) 23:40:15 437.445
PCSat 21 Jan 23:37:54 23:42:27 28° 109° (ESE) 23:47:01 145.827
RS-15 21 Jan 23:38:00 23:49:52 78° 120° (ESE) 00:02:13 29.354- 29.394
SPROUT 21 Jan 23:38:20 23:42:36 77° 258° (WSW) 23:46:52 437.525
BEESAT 3 21 Jan 23:43:59 23:47:42 35° 47° (NE) 23:51:24 437.485
UKube-1 21 Jan 23:44:05 23:48:21 61° 72° (ENE) 23:52:38 .
DX 1 21 Jan 23:48:00 23:52:23 90° 252° (WSW) 23:56:47 434.975-435.025
CUBEBUG 1 22 Jan 00:04:56 00:08:14 21° 267° (W) 00:11:32 437.445
ISS 22 Jan 00:05:26 00:08:22 30° 349° (N) 00:11:18 145.825
QB50P1 22 Jan 00:05:27 00:09:41 75° 284° (WNW) 00:13:54 145.935-145.965
POLYITAN 1 22 Jan 00:10:09 00:14:21 67° 287° (WNW) 00:18:34 437.675
QB50P2 22 Jan 00:11:29 00:15:40 60° 287° (WNW) 00:19:50 145.880/145.840
JAS-2 22 Jan 00:14:19 00:21:02 46° 293° (WNW) 00:28:15 435.910
ITUPSAT 1 22 Jan 00:19:34 00:21:32 12° 57° (ENE) 00:23:30 437.325
Oscar 19 22 Jan 00:19:51 00:22:48 15° 89° (E) 00:25:45 437.125/150
AISAT 22 Jan 00:25:41 00:28:53 19° 268° (W) 00:32:04 437.250
YUBILEINY 22 Jan 00:26:47 00:35:19 50° 73° (ENE) 00:43:44 435.215
BEESAT 2 22 Jan 00:32:06 00:36:01 46° 49° (NE) 00:39:56 435.950
POPSAT HIP 1 22 Jan 00:32:46 00:36:43 39° 290° (WNW) 00:40:40 437.405
DUCHIFAT 1 22 Jan 00:41:37 00:45:29 36° 291° (WNW) 00:49:20 145.980
Cosmos 2504 22 Jan 00:42:24 00:48:52 31° 67° (ENE) 00:55:05 435.465 / 435.565
Gurwin Techsat 1B 22 Jan 00:46:37 00:49:36 15° 89° (E) 00:52:34 435.225
NANOSAT C BR1 22 Jan 00:48:12 00:51:51 29° 292° (WNW) 00:55:30 145.865
AIST 1 22 Jan 00:49:59 00:54:17 86° 259° (W) 00:58:31
BEESAT 22 Jan 00:50:58 00:54:44 24° 63° (ENE) 00:58:30 436.000
SWISSCUBE 22 Jan 00:52:31 00:56:29 27° 65° (ENE) 01:00:29 437.505
TISAT 1 22 Jan 01:00:42 01:04:51 65° 259° (WSW) 01:09:00 437.305
BUGSAT 1 22 Jan 01:09:31 01:13:25 47° 288° (WNW) 01:17:18 437.445
Cosmos 2491 22 Jan 01:19:00 01:27:09 47° 88° (E) 01:35:21 435.465 / 435.565
PCSat 22 Jan 01:20:21 01:25:36 49° 309° (NW) 01:30:53 145.827
BEESAT 3 22 Jan 01:21:50 01:25:12 26° 245° (WSW) 01:28:33 437.485
UKube-1 22 Jan 01:22:31 01:24:47 14° 270° (W) 01:27:02 .
ISS 22 Jan 01:42:32 01:45:26 29° 9° (N) 01:48:21 145.825
AUBIESAT-1 22 Jan 01:48:11 01:50:10 13° 57° (ENE) 01:52:05 437.475
RS-15 22 Jan 01:52:10 02:03:36 44° 328° (NNW) 02:15:20 29.354- 29.394
ITUPSAT 1 22 Jan 01:53:51 01:58:37 87° 75° (ENE) 02:03:27 437.325
Oscar 19 22 Jan 01:57:31 02:02:41 74° 287° (WNW) 02:07:49 437.125/150
AO-7 22 Jan 01:59:37 02:03:48 14° 86° (E) 02:07:56 29.400- 29.500
JAS-2 22 Jan 02:03:25 02:04:30 10° 313° (NW) 02:05:35 435.910
MOZHAYETS 4 22 Jan 02:08:31 02:12:45 38° 69° (ENE) 02:17:02
BEESAT 2 22 Jan 02:10:33 02:13:30 20° 247° (WSW) 02:16:26 435.950
CUSAT 1 22 Jan 02:12:35 02:17:26 33° 86° (E) 02:23:24 437.405
PHONESAT 2.4 22 Jan 02:23:38 02:25:23 20° 172° (S) 02:27:08 2401.200-2431.200
YUBILEINY 22 Jan 02:23:56 02:31:56 41° 274° (W) 02:39:53 435.215
Gurwin Techsat 1B 22 Jan 02:24:49 02:30:09 78° 287° (WNW) 02:35:27 435.225
BEESAT 22 Jan 02:27:43 02:32:15 44° 261° (W) 02:36:49 436.000
SWISSCUBE 22 Jan 02:29:42 02:34:07 38° 262° (W) 02:38:35 437.505
Cosmos 2504 22 Jan 02:35:29 02:42:37 53° 269° (W) 02:49:30 435.465 / 435.565
KKS-1 22 Jan 02:36:37 02:40:18 26° 65° (ENE) 02:43:59 437.445
ITAMSAT 1 22 Jan 02:44:10 02:48:55 35° 97° (E) 02:53:40 435.822/435.867
AIST 2 22 Jan 02:44:40 02:48:24 29° 43° (NE) 02:52:08 435.215
M-CUBED/EXP-1 PRIME 22 Jan 02:44:43 02:48:58 60° 68° (ENE) 02:52:55 437.505
CUBESAT XI-V 22 Jan 02:59:31 03:03:09 23° 64° (ENE) 03:06:49 437.345
PCSat 22 Jan 03:07:46 03:10:21 13° 331° (NNW) 03:12:56 145.827
Cosmos 2491 22 Jan 03:15:57 03:24:05 42° 289° (WNW) 03:32:18 435.465 / 435.565
ISS 22 Jan 03:18:58 03:22:14 87° 29° (NNE) 03:25:28 145.825
AUBIESAT-1 22 Jan 03:19:57 03:24:09 70° 251° (WSW) 03:28:06 437.475
DANDE 22 Jan 03:20:34 03:24:15 31° 86° (E) 03:28:57 436.750
STARS 22 Jan 03:24:36 03:28:36 36° 69° (ENE) 03:32:37 437.465
ITUPSAT 1 22 Jan 03:35:45 03:37:07 11° 272° (W) 03:38:29 437.325
Oscar 19 22 Jan 03:39:18 03:41:06 12° 306° (NW) 03:42:54 437.125/150
MOZHAYETS 4 22 Jan 03:46:19 03:50:02 24° 267° (W) 03:53:46
AO-7 22 Jan 03:49:40 03:58:03 71° 106° (ESE) 04:06:21 29.400- 29.500
CUSAT 1 22 Jan 03:53:51 03:59:07 43° 291° (WNW) 04:05:45 437.405
PHONESAT 2.4 22 Jan 03:57:11 03:58:57 20° 188° (S) 04:00:43 2401.200-2431.200
Gurwin Techsat 1B 22 Jan 04:06:56 04:09:13 13° 305° (NW) 04:11:31 435.225
RS-15 22 Jan 04:09:50 04:20:21 31° 1° (N) 04:30:50 29.354- 29.394
KKS-1 22 Jan 04:12:40 04:16:43 34° 263° (W) 04:20:48 437.445
M-CUBED/EXP-1 PRIME 22 Jan 04:21:21 04:23:40 14° 262° (W) 04:25:54 437.505
AIST 2 22 Jan 04:23:01 04:26:57 38° 242° (WSW) 04:30:52 435.215
ITAMSAT 1 22 Jan 04:23:42 04:28:20 34° 295° (WNW) 04:32:59 435.822/435.867
CUBESAT XI-V 22 Jan 04:35:45 04:40:15 45° 262° (W) 04:44:48 437.345
Cosmos 2499 22 Jan 04:50:54 04:55:43 19° 60° (ENE) 05:00:27 435.465 / 435.565
NOAA 15 22 Jan 04:55:47 04:57:18 11° 86° (E) 04:58:48 137.62
ISS 22 Jan 04:56:25 04:58:18 15° 226° (SW) 05:00:11 145.825
STARS 22 Jan 05:01:31 05:05:02 23° 266° (W) 05:08:34 437.465
DANDE 22 Jan 05:03:11 05:06:57 29° 296° (WNW) 05:11:48 436.750
GOMX 1 22 Jan 05:07:06 05:10:57 29° 94° (E) 05:14:38 467.674
HORYU 2 22 Jan 05:10:36 05:14:43 36° 97° (E) 05:18:51 437.375
BRITE-PL 22 Jan 05:12:00 05:16:56 86° 101° (ESE) 05:21:27 437.365/2234.400
GONETS M04 22 Jan 05:14:31 05:21:45 27° 63° (ENE) 05:28:58
O/OREOS (USA 219) 22 Jan 05:24:46 05:28:39 30° 105° (ESE) 05:32:33 437.305
STRAND 1 22 Jan 05:27:27 05:31:36 26° 63° (ENE) 05:35:46 437.568
DOVE 4 22 Jan 05:37:03 05:40:23 23° 93° (E) 05:43:40 437.250
AO-7 22 Jan 05:43:08 05:50:12 32° 307° (NW) 05:57:14 29.400- 29.500
CUTE-I 22 Jan 05:46:45 05:51:31 32° 96° (E) 05:56:17 437.470
SO-50 22 Jan 06:20:27 06:23:14 16° 110° (ESE) 06:26:00 436.795
RS-15 22 Jan 06:25:04 06:36:56 47° 35° (NE) 06:48:28 29.354- 29.394
Cubesat XI-IV 22 Jan 06:30:13 06:35:35 75° 103° (ESE) 06:40:55 437.490
NOAA 15 22 Jan 06:32:32 06:37:53 82° 105° (ESE) 06:43:11 137.62
LilacSat-2 22 Jan 06:33:42 06:37:34 69° 285° (WNW) 06:41:25 437.200
CANX-2 22 Jan 06:34:04 06:36:34 15° 90° (E) 06:39:02 2200.000
PCSat 22 Jan 06:41:03 06:42:48 11° 25° (NNE) 06:44:33 145.827
Cosmos 2499 22 Jan 06:42:43 06:49:55 86° 263° (W) 06:56:58 435.465 / 435.565
SEEDS 22 Jan 06:42:59 06:43:25 10° 87° (E) 06:43:51 437.485
GOMX 1 22 Jan 06:45:15 06:49:00 28° 294° (WNW) 06:52:37 467.674
HORYU 2 22 Jan 06:47:27 06:51:07 25° 295° (WNW) 06:54:47 437.375
NOAA 18 22 Jan 06:49:42 06:55:08 61° 102° (ESE) 07:00:31 137.9125
CINEMA 3 22 Jan 06:51:38 06:55:27 33° 97° (E) 06:59:21 145.822/145.860
BRITE-PL 22 Jan 06:52:22 06:54:35 13° 304° (WNW) 06:56:44 437.365/2234.400
O/OREOS (USA 219) 22 Jan 07:04:01 07:07:59 31° 303° (WNW) 07:12:01 437.305
STRAND 1 22 Jan 07:05:40 07:10:32 45° 261° (W) 07:15:26 437.568
GONETS M04 22 Jan 07:10:41 07:19:31 76° 265° (W) 07:28:20
HO-68 22 Jan 07:14:21 07:21:04 41° 98° (E) 07:27:43 435.675
DOVE 4 22 Jan 07:14:26 07:18:11 32° 291° (WNW) 07:21:53 437.250
PRISM 22 Jan 07:23:30 07:26:20 18° 63° (ENE) 07:29:10 437.425
CUTE-I 22 Jan 07:26:43 07:31:36 37° 294° (WNW) 07:36:28 437.470
CUBEBUG 2 22 Jan 07:33:40 07:37:13 24° 94° (E) 07:40:51 437.445
CUTE 1.7 + AOD 2 22 Jan 07:38:48 07:43:04 61° 101° (E) 07:47:19 437.475
